Location: Lafig�re
(44.4503°N, 4.0357°E)
Time: 14:57:02
(UTC+00:00)

A-11 Canister half - Visible Passes

Search period start: 23 January 2021 00:00
Search period end: 02 February 2021 00:00
Orbit: 1517 x 1683 km, 47.2° (Epoch: 22 January)

Date Brightness Start Highest point End Pass type
(mag) Time Alt. Az. Time Alt. Az. Time Alt. Az.
23 Jan 11.1 02:16:25 10° SE 02:16:25 10° SE 02:16:29 10° SE visible
23 Jan 10.3 04:14:40 19° SSW 04:14:40 19° SSW 04:18:02 10° S visible
23 Jan 10.5 17:23:50 10° SE 17:26:35 11° ESE 17:29:18 10° ESE visible
23 Jan 9.2 19:20:48 10° SSW 19:29:32 45° SE 19:29:32 45° SE visible
23 Jan 10.4 21:24:33 10° WSW 21:27:46 25° WSW 21:27:46 25° WSW visible
24 Jan 10.6 03:53:34 16° S 03:53:34 16° S 03:55:27 10° S visible
24 Jan 9.3 18:58:02 10° SSW 19:06:46 42° SE 19:08:18 40° ESE visible
24 Jan 10.0 21:01:37 10° WSW 21:06:32 36° WSW 21:06:32 36° WSW visible
25 Jan 10.9 03:32:28 11° S 03:32:28 11° S 03:32:51 10° S visible
25 Jan 9.4 18:35:17 10° SSW 18:43:55 40° SE 18:47:02 32° E visible
25 Jan 9.4 20:38:42 10° WSW 20:45:15 51° WSW 20:45:15 51° WSW visible
26 Jan 9.6 18:12:32 10° SSW 18:21:05 38° SE 18:25:43 24° E visible
26 Jan 9.0 20:15:47 10° WSW 20:23:56 70° SW 20:23:56 70° SW visible
26 Jan 11.0 22:21:09 10° W 22:22:09 14° W 22:22:09 14° W visible
27 Jan 9.7 17:49:50 10° SSW 17:58:15 36° SE 18:04:21 18° E visible
27 Jan 8.7 19:52:51 10° WSW 20:02:22 82° SSE 20:02:34 82° SE visible
27 Jan 10.7 21:58:11 10° W 22:00:47 21° W 22:00:47 21° W visible
28 Jan 9.8 17:27:07 10° SSW 17:35:24 34° SE 17:42:56 12° ENE visible
28 Jan 8.8 19:29:55 10° WSW 19:39:28 80° SSE 19:41:10 64° E visible
28 Jan 10.3 21:35:14 10° W 21:39:22 30° W 21:39:22 30° W visible
29 Jan 8.9 19:07:01 10° WSW 19:16:34 78° SSE 19:19:42 48° E visible
29 Jan 9.8 21:12:16 10° W 21:17:55 41° W 21:17:55 41° W visible
30 Jan 8.9 18:44:06 10° SW 18:53:41 75° SSE 18:58:14 35° ENE visible
30 Jan 9.4 20:49:18 10° W 20:56:26 55° WNW 20:56:26 55° WNW visible
31 Jan 9.0 18:21:13 10° SW 18:30:47 72° SSE 18:36:43 26° ENE visible
31 Jan 9.0 20:26:20 10° W 20:34:55 71° NW 20:34:55 71° NW visible
31 Jan 10.9 22:31:46 10° WNW 22:33:07 15° WNW 22:33:07 15° WNW visible
01 Feb 9.1 17:58:19 10° SW 18:07:53 70° SSE 18:15:10 19° ENE visible
01 Feb 8.8 20:03:22 10° W 20:12:55 77° N 20:13:22 75° NNE visible
01 Feb 10.6 22:08:51 10° WNW 22:11:34 22° WNW 22:11:34 22° WNW visible
